Join Sparrow Flying Club
We have Central Arkansas’s only Light Sport Aircraft rental and offer the area’s only access to Sport Pilot training. We have the state’s only Light Sport Aircraft rental and offer the state’s only access to Sport Pilot training. Our emphasis is on safety and the positive promotion of General Aviation. Contact Us Today

Sparrow Flying Club is Arkansas’s premier flying club and aircraft rental company

We have the areas only Light Sport Aircraft rental and offer the state’s only access to Sport Pilot training. Our emphasis is on safety and the positive promotion of General Aviation. We have been in business since 2006 and David, Charles and Nathan have a combined aviation experience of over 60 years in flying and instructing with civilian, military, corporate, airline and charter.

Different missions, Different Needs, Different Planes

Lets face it, flying is expensive.  The cost of learning to fly as well as maintaining your proficiency is steep enough.  Add the cost of owning, insuring and maintaining one aircraft for training and later for personal use, can make the dollars skyrocket.  Additionally, the plane you purchase to train in will not most likely be the plane that will meet your mission needs later.

Not all needs of all club members fit one plane, therefore Sparrow offers the advantage of having a selection of aircraft available.  As a Sparrow Club member, you get the opportunity to schedule and fly any aircraft you or your instructor are qualified to fly.

Members also get access to the club’s Private Pilot ground school taught by one of our Certified Flight Instructors (CFI) every Saturday morning at no additional charge — a $400 value!!

What are you waiting for? Contact us and start flying today!

Learn to fly

Sparrow Flying Club offers professional-level flight training that fits your needs whether you just want a Light Sport License or fly commercially.

Together is better

Being a member offers many advantages on the ground, too! The shared knowledge and experience of our members makes us all better pilots.

Ground school

Members also get access to the club’s Private Pilot Ground School taught by a club flight instructor every Saturday morning at no additional cost.

Easy business travel

Own a business? Use the planes in the club and hire a pilot to easily bypass the hectic airport lines.

Special occasions

Have a birthday? Marriage proposal? Sightseeing? We can cater to your needs to just go up in the air, celebrate, and have some fun.

Own an airplane?

Lease it to the club! Leasing your plane can help offset the cost of ownership and helps ensure it gets regular use.

Stay up to date

Latest Updates

  • Sparrow Christmas Party

    Last Friday night, Sparrow Flying Club had a Christmas party for members and their families. We had a great time enjoying some grilled meats and fixings for dinner. During dinner, it was nice to meet and talk with some of the other members that I hadn’t met yet (including the […] read more

  • Take advantage of our Groupon deal!

    In case you haven’t seen it yet, we currently have a deal on Groupon! $99 for Discovery Flight lesson for one ($225 value) $125 for sightseeing tour for two ($299 value) $425 for two two-hour pilot lessons towards a private-pilot license plus one month of Sparrow Flying Club membership ($692 […] read more

  • New Site is Live!

    We have finally launched our redesigned website. There are a number of new features still to come, but please let us know if you’d like to see something in particular here by emailing us at info@sparrowflyingclub.com. We look forward to providing more content and features as the days go by. […] read more

  • The Clouds

    Here’s a quick story from one of the members of the group: While working on my ticket with Michael Hinchcliff, in order to fulfill my 3 hours of “under the hood” instruction I requested to experience real IFR conditions as part of that training. During one of those IFR flights […] read more

Upcoming Events

April 4, 2015
Group Ground Lesson - 9:00 am–11:00 am
April 11, 2015
Group Ground Lesson - 9:00 am–11:00 am
April 18, 2015
Group Ground Lesson - 9:00 am–11:00 am
Weather Information

Forecast for Conway, AR

Chance of a Thunderstorm
Wednesday 04/01 50%
High 79° / Low 64°
Chance of a Thunderstorm
Cloudy skies this morning followed by scattered showers and thunderstorms during the afternoon. High 79F. Winds SSE at 5 to 10 mph. Chance of rain 50%.
Overcast
Thursday 04/02 20%
High 80° / Low 65°
Overcast
Cloudy skies. A stray severe thunderstorm is possible. High near 80F. Winds SSW at 10 to 20 mph.
Chance of a Thunderstorm
Friday 04/03 60%
High 72° / Low 40°
Chance of a Thunderstorm
Variable clouds with showers and scattered thunderstorms. Storms more numerous in the morning. High 72F. Winds W at 15 to 25 mph. Chance of rain 60%.

METAR
KLIT 011353Z 15007KT 5SM HZ FEW012 SCT045 BKN250 19/16 A2997 RMK AO2 SLP150 T01890161 $
KLIT 011253Z 14004KT 3SM BR BKN045 OVC150 17/16 A2997 RMK AO2 RAB05E16 SLP150 P0000 T01720156
KLIT 011153Z 15006KT 2SM BR BKN048 OVC150 16/14 A2996 RMK AO2 RAB10E15 SLP146 P0000 60000 70002 T01610144 10189 20150 52008
KLIT 011117Z 13003KT 2SM BR BCFG SCT045 OVC150 16/14 A2997 RMK AO2 RAB10E15 VIS W 3 P0000
KLIT 011053Z 00000KT 2 1/2SM BR BCFG OVC150 16/14 A2996 RMK AO2 SLP146 VIS W 3 T01610144
KLIT 011044Z 13003KT 2 1/2SM BR BCFG OVC150 16/14 A2996 RMK AO2 VIS W 3
KLIT 010953Z 00000KT 4SM BR OVC150 16/14 A2994 RMK AO2 RAB23E39 SLP139 P0000 T01560139
TAF
KLIT 011132Z 0112/0212 13003KT 4SM BR SCT040 OVC150 TEMPO 0112/0114 2SM BR BKN040 FM011500 18007KT P6SM BKN035 OVC150 TEMPO 0121/0124 5SM TSRA BR OVC025CB FM020500 17005KT P6SM VCTS OVC025CB FM021000 20009KT P6SM VCSH SCT010 BKN050
Our Staff

David Jones

ATP, CFI


I really had no idea that there was a job like mine when I started learning to fly,  I just wanted to fly airplanes.  I took my first lesson in Searcy,...
read more


Charles Brantley

ATP


I dreamed of flying as a kid growing up in Arkadelphia, AR. I started lessons while in high school in 1974 and got my PVT license later the same year...
read more


Nathan Bradshaw


I developed my love for flying through my dad, Barry Bradshaw. He mainly flew from the time he was a teenager until I was a little baby, just long enough...
read more


Videos

See More Videos Watch more videos from our YouTube playlist